Location: ?????
(37.7324°N, 23.9257°E)
Time: 06:51:16
(UTC+00:00)

Meteor 2-6 Rocket - Pass Details

Date: 29 November 2020
Orbit: 806 x 914 km, 81.3° (Epoch: 17 January)

Event Time Altitude Azimuth Distance (km) Brightness Sun altitude
Rises 04:32:53 0° 344° (NNW) 3,329 7.0 -9.2°
Reaches altitude 10° 04:35:20 10° 339° (NNW) 2,397 6.2 -8.8°
Maximum altitude 04:40:29 48° 266° (W) 1,063 4.4 -7.8°
Drops below altitude 10° 04:45:41 10° 194° (SSW) 2,418 6.7 -6.8°
Sets 04:48:10 0° 188° (S) 3,362 7.5 -6.4°
